GW5098 Weather Reports


time (UTC)temp
F
wind
direction
speed
knots
gust
knots
rain 1hr
in
rain 24hr
in
rain mn
in
humidity
%
barometer
mb
20260506203604 50 307 0.0 0.9 0.00 0.01 0.01 79 1013.5
20260506203101 50 307 0.0 0.9 0.00 0.01 0.01 78 1013.4
20260506202601 50 306 0.0 0.9 0.00 0.01 0.01 78 1013.5
20260506202103 50 305 0.0 0.9 0.00 0.01 0.01 78 1013.4
20260506201831 50 306 0.0 0.9 0.00 0.01 0.01 78 1013.6
20260506201101 50 304 0.0 0.9 0.00 0.01 0.01 78 1013.4
20260506200601 50 302 0.0 0.9 0.00 0.01 0.01 78 1013.2
20260506195602 50 305 0.0 0.9 0.00 0.01 0.01 78 1013.2
20260506195104 50 290 0.0 0.9 0.00 0.01 0.01 78 1013.0
20260506194602 50 298 0.0 0.9 0.00 0.01 0.01 77 1013.0
20260506194106 50 305 0.0 1.7 0.00 0.01 0.01 77 1013.0
20260506193602 51 305 0.0 1.7 0.00 0.01 0.01 77 1012.8
20260506193104 51 297 0.0 1.7 0.00 0.01 0.01 76 1013.1
20260506192604 51 283 0.0 1.7 0.00 0.01 0.01 76 1012.9
20260506192109 51 302 0.0 1.7 0.00 0.01 0.01 76 1012.8
20260506191603 51 311 0.0 2.6 0.00 0.01 0.01 76 1012.7
20260506191103 51 81 0.9 2.6 0.00 0.01 0.01 76 1012.6
20260506190603 51 289 0.0 1.7 0.00 0.01 0.01 77 1012.7
20260506190101 51 269 0.0 1.7 0.00 0.01 0.01 77 1012.5
20260506185601 51 313 0.0 1.7 0.00 0.01 0.01 77 1012.6
20260506185105 51 259 0.9 1.7 0.00 0.01 0.01 78 1012.7
20260506184601 51 288 0.9 1.7 0.00 0.01 0.01 78 1012.4
20260506184101 51 284 0.0 0.9 0.00 0.01 0.01 79 1012.4
20260506183827 51 309 0.9 1.7 0.00 0.01 0.01 79 1012.3
20260506183101 51 343 0.9 1.7 0.00 0.01 0.01 79 1012.4
20260506182600 51 309 0.0 0.9 0.00 0.01 0.01 79 1012.4
20260506182101 51 293 0.0 1.7 0.00 0.01 0.01 79 1012.3
20260506181600 51 317 0.0 1.7 0.00 0.01 0.01 79 1012.3
20260506181323 51 304 0.0 1.7 0.00 0.01 0.01 79 1012.3
20260506180601 51 298 0.0 1.7 0.00 0.01 0.01 79 1012.0
20260506175601 51 299 0.0 1.7 0.00 0.01 0.01 78 1012.0
20260506175328 51 299 0.9 2.6 0.00 0.01 0.01 78 1011.8
20260506174600 51 276 0.0 3.5 0.00 0.01 0.01 78 1011.8
20260506174101 51 305 0.0 3.5 0.00 0.01 0.01 78 1011.9
20260506173606 51 314 0.9 6.1 0.00 0.01 0.01 78 1011.7
20260506173602 51 327 1.7 5.2 0.00 0.01 0.01 78 1011.8
20260506172601 51 12 2.6 6.1 0.00 0.01 0.01 79 1011.7
20260506172101 51 346 1.7 3.5 0.00 0.01 0.01 79 1011.6
20260506171600 51 300 0.0 3.5 0.00 0.01 0.01 80 1011.7
20260506171101 51 5 0.9 3.5 0.00 0.01 0.01 80 1011.5
20260506170832 51 343 0.0 6.1 0.00 0.01 0.01 80 1011.5
20260506170108 51 128 0.9 6.1 0.00 0.01 0.01 80 1011.3
20260506165604 51 312 0.9 2.6 0.00 0.01 0.01 80 1011.5
20260506165102 51 57 1.7 5.2 0.00 0.01 0.01 80 1011.4
20260506164600 52 10 0.9 5.2 0.00 0.01 0.01 79 1011.3
20260506164103 52 67 1.7 5.2 0.00 0.01 0.01 79 1011.5
20260506163602 51 326 0.9 6.1 0.00 0.01 0.01 80 1011.3
20260506163101 51 335 1.7 6.1 0.00 0.01 0.01 79 1011.2
20260506162600 51 17 1.7 7.0 0.00 0.01 0.01 79 1011.4
20260506162102 51 43 3.5 7.0 0.00 0.01 0.01 79 1011.3
20260506161602 51 256 0.0 6.1 0.00 0.01 0.01 80 1011.3
20260506161333 51 289 0.9 6.1 0.00 0.01 0.01 80 1011.3
20260506160831 51 348 1.7 6.1 0.00 0.01 0.01 79 1011.3
20260506155601 51 310 3.5 7.0 0.00 0.01 0.01 78 1011.3
20260506155100 52 277 1.7 7.0 0.00 0.01 0.01 78 1011.2
20260506154603 52 272 3.5 7.0 0.00 0.01 0.01 77 1011.3
20260506154102 52 264 0.0 7.0 0.00 0.01 0.01 77 1011.3
20260506153602 52 275 0.0 7.0 0.00 0.01 0.01 76 1011.1
20260506153102 52 36 2.6 3.5 0.00 0.01 0.01 74 1011.1
20260506152601 52 266 0.0 3.5 0.00 0.01 0.01 74 1011.1
20260506152102 53 286 0.9 2.6 0.00 0.01 0.01 73 1011.1
20260506151603 53 283 0.0 5.2 0.00 0.01 0.01 72 1011.1
20260506151102 53 45 1.7 7.0 0.00 0.01 0.01 72 1010.9
20260506150602 53 25 1.7 7.0 0.00 0.01 0.01 72 1011.2
20260506150101 53 241 0.0 5.2 0.00 0.01 0.01 72 1011.0
20260506145601 53 11 0.9 6.1 0.00 0.01 0.01 71 1011.1
20260506145100 53 39 4.3 6.1 0.00 0.01 0.01 71 1011.0
20260506144602 53 310 1.7 5.2 0.00 0.01 0.01 70 1011.1
20260506144101 53 300 1.7 3.5 0.00 0.01 0.01 70 1011.0
20260506143600 53 313 0.0 3.5 0.00 0.01 0.01 70 1010.9
20260506143337 53 267 1.7 5.2 0.00 0.01 0.01 70 1011.0
20260506142602 53 258 0.9 6.1 0.00 0.01 0.01 70 1010.9
20260506142103 53 253 2.6 7.0 0.00 0.01 0.01 68 1010.9
20260506141602 53 20 4.3 7.0 0.00 0.01 0.01 67 1010.9
20260506141102 54 278 0.0 6.1 0.00 0.01 0.01 68 1010.9
20260506140829 54 263 1.7 6.1 0.00 0.01 0.01 66 1010.8
20260506135600 54 5 2.6 7.8 0.00 0.01 0.01 66 1011.0
20260506135108 54 296 0.9 7.8 0.00 0.01 0.01 65 1010.9
20260506134606 55 278 2.6 5.2 0.00 0.01 0.01 64 1010.9
20260506134106 54 266 1.7 5.2 0.00 0.01 0.01 66 1010.7
20260506134101 55 322 1.7 5.2 0.00 0.01 0.01 65 1010.7
20260506133100 54 143 3.5 7.0 0.00 0.01 0.01 65 1010.8
20260506132603 55 279 3.5 7.0 0.00 0.01 0.01 65 1010.9
20260506132103 54 266 0.9 6.1 0.00 0.01 0.01 66 1010.8
20260506131603 54 352 2.6 6.1 0.00 0.01 0.01 66 1010.8
20260506131102 55 52 2.6 7.0 0.00 0.01 0.01 66 1010.7
20260506130602 55 21 1.7 7.0 0.00 0.01 0.01 67 1010.6
20260506125603 54 70 1.7 7.8 0.00 0.01 0.01 67 1010.7
20260506125054 54 286 1.7 7.0 0.00 0.01 0.01 67 1010.6
20260506124557 53 322 1.7 7.0 0.00 0.01 0.01 68 1010.6
20260506124053 53 274 0.0 7.8 0.00 0.01 0.01 69 1010.6
20260506123555 53 16 0.9 7.8 0.00 0.01 0.01 68 1010.5
20260506123323 53 355 0.9 5.2 0.00 0.01 0.01 69 1010.7
20260506122552 53 185 0.9 7.0 0.00 0.01 0.01 69 1010.5
20260506122053 53 10 3.5 7.0 0.00 0.01 0.01 69 1010.7
20260506121553 53 125 0.9 6.1 0.00 0.01 0.01 70 1010.5
20260506121325 53 297 1.7 7.0 0.00 0.01 0.01 70 1010.7
20260506120553 53 357 2.6 7.0 0.00 0.01 0.01 70 1010.6
20260506120324 53 76 0.9 6.1 0.00 0.01 0.01 70 1010.5
20260506115553 53 323 0.0 6.1 0.00 0.01 0.01 70 1010.5
20260506115053 53 258 0.9 7.8 0.00 0.01 0.01 69 1010.4
20260506114554 53 9 3.5 7.8 0.00 0.01 0.01 68 1010.3
20260506114053 54 335 2.6 7.0 0.00 0.01 0.01 68 1010.3
20260506113823 54 286 1.7 7.0 0.00 0.01 0.01 69 1010.2
20260506113054 55 308 1.7 5.2 0.00 0.01 0.01 69 1010.2
20260506112553 54 356 0.9 5.2 0.00 0.01 0.01 69 1010.4
20260506112053 54 249 0.9 5.2 0.00 0.01 0.01 69 1010.3
20260506111552 54 19 2.6 5.2 0.00 0.01 0.01 68 1010.3
20260506111030 54 267 1.7 7.8 0.00 0.01 0.01 70 1010.2
20260506110531 54 236 1.7 7.8 0.00 0.01 0.01 69 1010.3
20260506110030 54 275 0.0 5.2 0.00 0.01 0.01 72 1010.2
20260506105535 54 285 0.9 7.0 0.00 0.01 0.01 73 1010.4
20260506105030 54 251 0.0 7.0 0.00 0.01 0.01 73 1010.3
20260506105019 54 233 1.7 7.0 0.00 0.01 0.01 74 1010.2
20260506104028 54 16 1.7 6.1 0.00 0.01 0.01 74 1010.0
20260506103531 54 275 0.0 6.1 0.00 0.01 0.01 76 1010.2
20260506103510 54 1 0.0 6.1 0.00 0.01 0.01 76 1010.1
20260506102521 53 349 1.7 7.8 0.00 0.01 0.01 76 1010.1
20260506102020 53 335 4.3 7.8 0.00 0.01 0.01 78 1010.1
20260506101521 53 95 1.7 6.1 0.00 0.01 0.01 80 1010.2
20260506101020 53 300 1.7 7.8 0.00 0.01 0.01 81 1010.0
20260506100519 53 270 0.9 7.8 0.00 0.01 0.01 80 1010.0
20260506100020 53 29 1.7 6.1 0.00 0.01 0.01 81 1009.9
20260506095520 53 315 1.7 6.1 0.00 0.01 0.01 80 1009.9
20260506095020 53 244 0.0 6.1 0.00 0.01 0.01 81 1009.9
20260506095013 53 344 3.5 8.7 0.00 0.01 0.01 80 1009.9
20260506094019 53 67 2.6 8.7 0.00 0.01 0.01 79 1009.8
20260506093520 53 2 1.7 7.0 0.00 0.01 0.01 80 1009.8
20260506093507 53 357 4.3 7.0 0.00 0.01 0.01 79 1009.7
20260506092520 53 287 1.7 6.1 0.00 0.02 0.01 81 1009.7
20260506092020 53 284 0.9 6.1 0.00 0.02 0.01 81 1009.7
20260506091519 53 331 1.7 7.0 0.00 0.02 0.01 81 1009.6
20260506091019 53 12 1.7 7.0 0.00 0.02 0.01 81 1009.5
20260506090520 53 278 2.6 5.2 0.00 0.02 0.01 82 1009.5
20260506090020 53 281 1.7 7.0 0.00 0.02 0.01 82 1009.6
20260506085520 53 300 3.5 7.0 0.00 0.02 0.01 83 1009.5
20260506085020 53 303 0.9 3.5 0.00 0.02 0.01 84 1009.6
20260506084502 52 356 1.7 5.2 0.00 0.02 0.01 84 1009.5
20260506084234 52 349 2.6 7.8 0.00 0.02 0.01 85 1009.4
20260506083736 52 356 5.2 7.8 0.00 0.02 0.01 85 1009.5
20260506083232 52 284 1.7 5.2 0.00 0.02 0.01 86 1009.5
20260506082450 52 292 2.6 5.2 0.00 0.02 0.01 86 1009.4
20260506081952 51 250 0.9 5.2 0.00 0.02 0.01 87 1009.5
20260506081447 52 353 3.5 5.2 0.00 0.02 0.01 87 1009.3
20260506080951 51 353 0.9 2.6 0.00 0.02 0.01 87 1009.4
20260506080447 51 269 0.0 2.6 0.00 0.02 0.01 88 1009.3
20260506073452 50 325 3.5 7.0 0.00 0.02 0.01 90 1009.5
20260506072947 50 285 0.9 7.0 0.00 0.02 0.01 91 1009.3
20260506072447 50 277 0.9 7.0 0.00 0.02 0.01 91 1009.5
20260506071947 49 298 3.5 6.1 0.00 0.02 0.01 91 1009.5
20260506071447 49 257 0.9 7.0 0.00 0.02 0.01 92 1009.4
20260506071208 49 287 2.6 7.0 0.00 0.02 0.01 92 1009.3
20260506070446 49 241 0.9 3.5 0.00 0.02 0.01 92 1009.4
20260506062444 48 294 1.7 3.5 0.01 0.02 0.01 96 1009.1
20260506061947 48 260 0.9 3.5 0.01 0.02 0.01 96 1009.1
20260506061448 48 269 0.9 2.6 0.01 0.02 0.01 97 1009.2
20260506060945 48 314 1.7 2.6 0.01 0.02 0.01 97 1009.0
20260506060712 48 259 0.9 2.6 0.01 0.02 0.01 97 1009.1
20260506060209 48 248 1.7 2.6 0.01 0.02 0.01 97 1009.1
20260506050944 47 358 0.9 3.5 0.00 0.01 0.00 97 1009.1
20260506050939 47 274 0.0 3.5 0.00 0.01 0.00 97 1009.1
20260506044429 48 344 1.7 3.5 0.00 0.01 0.00 96 1009.0
20260506043928 48 286 0.9 2.6 0.00 0.01 0.00 96 1009.0
20260506043656 48 334 0.9 6.1 0.00 0.01 0.00 96 1009.0
20260506043157 48 289 0.9 6.1 0.00 0.01 0.00 96 1008.9
20260506042430 47 270 0.9 2.6 0.00 0.01 0.00 96 1008.8
20260506041916 47 269 0.9 2.6 0.00 0.02 0.00 96 1009.0
20260506041640 47 258 0.9 5.2 0.00 0.02 0.00 96 1008.8
20260506040913 47 271 0.9 5.2 0.00 0.04 0.00 96 1008.8
20260506040411 47 341 1.7 3.5 0.00 0.04 0.00 96 1008.7
20260506035914 47 265 1.7 3.5 0.00 0.04 0.00 96 1009.0
20260506035413 47 309 1.7 2.6 0.00 0.04 0.00 96 1008.9
20260506034912 47 263 1.7 3.5 0.00 0.04 0.00 96 1009.0
20260506034413 47 258 0.9 3.5 0.00 0.04 0.00 97 1009.3
20260506034144 47 346 0.9 5.2 0.00 0.04 0.00 97 1009.0
20260506033412 47 284 1.7 5.2 0.00 0.04 0.00 97 1009.1
20260506033135 47 271 0.9 5.2 0.00 0.04 0.00 97 1009.1
20260506032633 47 10 3.5 5.2 0.00 0.04 0.00 97 1009.0
20260506031912 47 272 0.9 3.5 0.00 0.04 0.00 97 1008.9
20260506031411 47 277 2.6 6.1 0.00 0.04 0.00 97 1009.1
20260506030911 47 278 2.6 6.1 0.00 0.04 0.00 98 1009.0
20260506030411 47 341 2.6 3.5 0.00 0.04 0.00 98 1009.1
20260506025911 47 311 1.7 5.2 0.00 0.04 0.00 98 1009.0
20260506025410 47 273 1.7 5.2 0.00 0.04 0.00 98 1009.3
20260506024910 47 8 2.6 3.5 0.00 0.04 0.00 98 1009.3
20260506024410 47 266 0.0 3.5 0.00 0.04 0.00 98 1009.3
20260506023911 47 315 1.7 3.5 0.00 0.04 0.00 98 1009.4
20260506023410 47 318 0.9 3.5 0.00 0.04 0.00 98 1009.3
20260506022910 47 258 0.9 3.5 0.00 0.04 0.00 98 1009.3
20260506022410 47 285 0.9 3.5 0.00 0.04 0.00 98 1009.4
20260506021910 47 298 0.9 2.6 0.00 0.04 0.00 98 1009.2
20260506021408 47 241 0.9 2.6 0.00 0.04 0.00 97 1009.4
20260506020911 47 293 0.0 5.2 0.00 0.04 0.00 97 1009.4
20260506020410 47 316 0.9 5.2 0.00 0.04 0.00 97 1009.3
20260506015910 47 352 0.9 5.2 0.00 0.04 0.00 97 1009.3
20260506015410 47 40 0.9 5.2 0.00 0.04 0.00 97 1009.7
20260506014905 47 267 0.0 6.1 0.00 0.04 0.00 96 1009.4
20260506014849 48 292 0.9 6.1 0.00 0.04 0.00 96 1009.3
20260506014129 48 267 0.0 5.2 0.00 0.04 0.00 95 1009.5
20260506013402 48 257 2.6 7.8 0.00 0.04 0.00 94 1009.5
20260506013127 48 283 2.6 7.8 0.00 0.04 0.00 93 1009.4
20260506012625 48 346 0.9 5.2 0.00 0.04 0.00 92 1009.4
20260506012126 49 271 0.9 3.5 0.00 0.04 0.00 91 1009.7
20260506011401 49 342 0.9 5.2 0.00 0.04 0.00 91 1009.5
20260506010901 49 290 0.9 6.1 0.00 0.04 0.00 90 1009.4
20260506010632 49 324 1.7 6.1 0.00 0.04 0.00 90 1009.6
20260506005901 49 333 0.9 6.1 0.00 0.04 0.00 90 1009.7
20260506005400 49 292 0.9 2.6 0.00 0.04 0.00 89 1009.8
20260506004900 49 290 0.0 3.5 0.00 0.04 0.00 89 1009.8
20260506004403 49 325 1.7 7.0 0.00 0.04 0.00 89 1009.8
20260506003902 49 39 1.7 7.0 0.00 0.04 0.00 89 1009.7
20260506003402 49 349 1.7 2.6 0.00 0.04 0.00 89 1009.8
20260506002842 49 276 0.0 3.5 0.00 0.04 0.00 89 1009.9
20260506002342 49 292 0.9 5.2 0.00 0.04 0.00 89 1009.9
20260506002102 49 314 0.9 6.1 0.00 0.04 0.00 89 1009.9
20260506001337 49 349 1.7 6.1 0.00 0.04 0.00 88 1009.8
20260506000840 49 334 3.5 5.2 0.00 0.04 0.00 88 1009.8
20260506000337 49 275 0.0 3.5 0.00 0.04 0.00 88 1010.0
20260506000104 49 261 0.0 2.6 0.00 0.04 0.00 88 1010.1
20260505235336 49 343 0.9 2.6 0.00 0.04 0.00 88 1010.1
20260505234835 49 278 0.0 5.2 0.00 0.05 0.00 88 1010.0
20260505234335 49 326 2.6 5.2 0.00 0.05 0.00 88 1010.2
20260505233835 49 303 1.7 5.2 0.00 0.05 0.00 88 1010.2
20260505233334 49 347 2.6 5.2 0.00 0.05 0.00 88 1010.1
20260505232835 49 342 0.9 7.0 0.00 0.05 0.00 88 1010.1
20260505232335 49 19 5.2 7.0 0.00 0.06 0.00 88 1010.3
20260505232100 49 212 1.7 6.1 0.00 0.06 0.00 88 1010.3
20260505231335 49 335 0.9 6.1 0.00 0.07 0.00 88 1010.2
20260505230835 50 288 1.7 6.1 0.00 0.07 0.00 88 1010.3
20260505230337 50 272 2.6 5.2 0.00 0.07 0.00 88 1010.4
20260505225834 50 302 0.9 6.1 0.00 0.07 0.00 88 1010.4
20260505225330 50 266 1.7 6.1 0.00 0.08 0.00 88 1010.5
20260505225053 50 264 0.0 6.1 0.00 0.08 0.00 88 1010.5
20260505224329 50 348 3.5 6.1 0.00 0.09 0.00 88 1010.5
20260505223829 50 22 1.7 6.1 0.00 0.11 0.00 88 1010.4
20260505223329 50 309 0.9 7.8 0.00 0.13 0.00 89 1010.4
20260505222829 50 271 0.9 7.8 0.00 0.14 0.00 89 1010.6
20260505222330 50 288 1.7 3.5 0.00 0.16 0.00 89 1010.6
20260505221831 50 262 0.9 6.1 0.00 0.19 0.00 89 1010.5
20260505221330 50 2 2.6 6.1 0.00 0.23 0.00 89 1010.5
20260505220829 50 290 1.7 6.1 0.00 0.28 0.00 88 1010.6
20260505220330 50 299 0.9 5.2 0.00 0.29 0.00 89 1010.7
20260505215832 50 263 0.9 5.2 0.00 0.29 0.29 89 1010.7
20260505215600 50 352 3.5 7.8 0.00 0.29 0.29 89 1010.7
20260505214831 50 264 0.9 7.8 0.00 0.29 0.29 89 1010.7
20260505214601 50 355 0.0 5.2 0.00 0.29 0.29 89 1011.0
20260505213831 50 75 0.9 5.2 0.00 0.29 0.29 90 1010.8
20260505213331 50 358 0.9 6.1 0.00 0.30 0.29 90 1010.8
20260505212831 50 336 1.7 6.1 0.00 0.32 0.29 90 1010.9
20260505212600 50 22 1.7 5.2 0.00 0.32 0.29 90 1010.9
20260505211831 50 339 1.7 5.2 0.00 0.33 0.29 90 1010.9
20260505211331 50 285 0.9 5.2 0.00 0.33 0.29 90 1010.9
20260505210831 51 341 0.0 5.2 0.00 0.33 0.29 90 1011.0
20260505210331 51 72 0.0 6.1 0.00 0.33 0.29 90 1010.9
20260505210058 51 313 1.7 6.1 0.00 0.33 0.29 89 1011.0
20260505205329 51 354 1.7 8.7 0.00 0.33 0.29 89 1010.9
20260505204829 51 345 1.7 8.7 0.00 0.33 0.29 89 1010.8
20260505204328 51 252 0.9 5.2 0.00 0.33 0.29 89 1011.1